Regional Weather Roundup
Issued by NWS Sterling, VA

Home | Current Version | Previous Version | Text Only | Print | Product List | Glossary Off
Versions: 1 2 3 4 5 6 7 8 9 10 11 12 13 14 15 16 17 18 19 20 21 22 23 24 25 26 27 28 29 30 31 32 33 34 35 36 37 38 39 40 41 42 43 44 45 46 47 48 49 50

101
ASUS41 KLWX 070510
RWRLWX

REGIONAL WEATHER ROUNDUP
NATIONAL WEATHER SERVICE BALTIMORE MD/WASHINGTON DC
1200 AM EST WED DEC 07 2016

Note: "FAIR" indicates few or no clouds below 12,000 feet
with no significant weather and/or obstructions to visibility.
 TC=TEMPERATURE CELSIUS

 * =Non NWS site. Station does not report precipitation (e.g. rain,
    snow, etc.), thunder, or fog.

DCZ001-MDZ009-015-VAZ040>042-051-053>054-070600-
WASHINGTON METRO

CITY           SKY/WX    TMP DP  RH WIND       PRES   REMARKS
WASHINGTON NAT CLOUDY    46  44  93 N10       29.84R
DULLES         DRIZZLE   41  39  93 N7        29.84R FOG
ANDREWS AFB    CLOUDY    43  41  93 N9        29.81R
FT BELVOIR     CLOUDY    44  41  91 NW9       29.84R
QUANTICO       CLOUDY    43  40  89 N12       29.85R
COLLEGE PARK*  CLOUDY    43  41  93 NW5       29.83R
LEESBURG*      CLOUDY    41  41 100 N5        29.85F FOG
MANASSAS*        N/A    N/A N/A N/A MISG        N/A
GAITHERSBURG*  CLOUDY    39  36  87 NW5       29.88R

$$

MDZ006>007-011-014-070600-
BALTIMORE METRO

CITY           SKY/WX    TMP DP  RH WIND       PRES   REMARKS
BWI AIRPORT    DRIZZLE   43  43 100 N6        29.83R FOG
MD SCIENCE CTR   N/A     45  40  82 MISG      29.83R
ANNAPOLIS      CLOUDY    46  43  89 N10       29.81R
FORT MEADE*    CLOUDY    43  41  93 N3        29.85R

$$

MDZ012-015-019>023-070600-
MARYLAND EASTERN SHORE

CITY           SKY/WX    TMP DP  RH WIND       PRES   REMARKS
OCEAN CITY     LGT RAIN  51  50  96 NE20G29   29.66R
SALISBURY      LGT RAIN  50  48  93 N13       29.69R
BAY BRIDGE AP* CLOUDY    45  41  87 N8        29.81R
CAMBRIDGE*     CLOUDY    45  43  93 N9        29.76R
EASTON*        CLOUDY    46  43  90 NE10      29.81R

$$

MDZ017>025-070600-
SOUTHERN MARYLAND

CITY           SKY/WX    TMP DP  RH WIND       PRES   REMARKS
PATUXENT RIVER CLOUDY    47  45  93 NW15      29.78R
ST INIGOES     LGT RAIN  47  46  97 VRB6      29.77R
LEONARDTOWN*   CLOUDY    45  43  93 N5        29.80R

$$

MDZ003>005-070600-
NORTH CENTRAL MARYLAND

CITY           SKY/WX    TMP DP  RH WIND       PRES   REMARKS
FREDERICK*     CLOUDY    37  37 100 NE3       29.88S FOG
HAGERSTOWN APT CLOUDY    38  36  92 CALM      29.86R FOG
WESTMINSTER*   DRIZZLE   37  37 100 NW5       29.84R

$$

MDZ501>502-070600-
WESTERN MARYLAND

CITY           SKY/WX    TMP DP  RH WIND       PRES   REMARKS
OAKLAND*       FOG       34  34 100 CALM      29.78R VSB 1/4
CUMBERLAND*    NOT AVBL

$$

VAZ025>031-070600-
SHENANDOAH VALLEY

CITY           SKY/WX    TMP DP  RH WIND       PRES   REMARKS
WINCHESTER*    CLOUDY    36  36 100 CALM      29.86R FOG
FRONT ROYAL*   CLOUDY    36  36 100 CALM      29.85S
LURAY*         CLOUDY    37  37 100 CALM      29.85F FOG
NEW MARKET*    CLOUDY    37  36  95 CALM      29.85R
STAUNTON*      CLOUDY    36  36  99 CALM      29.87R FOG
WAYNESBORO*    CLOUDY    36  35  96 CALM      29.85R

$$

WVZ021-048>050-054>055-070600-
EASTERN WEST VIRGINIA PANHANDLE

CITY           SKY/WX    TMP DP  RH WIND       PRES   REMARKS
MARTINSBURG    CLOUDY    37  37 100 CALM      29.86S FOG
PETERSBURG*    CLOUDY    37  37  99 CALM      29.86F FOG

$$

VAZ036>039-050-070600-
CENTRAL FOOTHILLS

CITY           SKY/WX    TMP DP  RH WIND       PRES   REMARKS
CHARLOTTESVILL CLOUDY    43  39  86 CALM      29.84R
CULPEPER*      CLOUDY    42  40  94 CALM      29.86R
ORANGE*          N/A     43  43 100 CALM      29.86R
GORDONSVILLE*  CLOUDY    43  40  91 CALM      29.83S
WARRENTON*     CLOUDY    42  37  82 N5        29.83S

$$

VAZ055>057-070600-
NORTH AND CENTRAL PIEDMONT

CITY           SKY/WX    TMP DP  RH WIND       PRES   REMARKS
FREDERICKSBRG* CLOUDY    42  42 100 N3        29.82F
STAFFORD*      CLOUDY    41  41 100 N5        29.87S FOG

$$

NCZ024-NYZ072-PAZ021-071-VAZ022-071-070600-
OTHER REGIONAL OBSERVATIONS

CITY           SKY/WX    TMP DP  RH WIND       PRES   REMARKS
NEW YORK CITY  CLOUDY    40  37  89 NE6       29.88F
PHILADELPHIA   LGT RAIN  43  40  89 NE16      29.79F FOG
PITTSBURGH     CLOUDY    44  41  89 W12       29.82R
ROANOKE        CLOUDY    40  38  93 VRB5      29.88R
RICHMOND       CLOUDY    43  42  97 NW12      29.82R
RALEIGH        CLOUDY    43  41  93 VRB5      29.87R

$$

ANZ530>537-070600-
MARINE OBSERVATIONS

STATION/POSITION TIME  TEMP    WIND        PRES
                       AIR SEA DIR/SP/G
                 (UTC) (F)     (DEG/KT/KT) (MB)
THOMAS PT LIGHT  0500   45 49   10/ 17/ 19   N/A
BALT KEY BRIDGE  0448   43     340/  8/  9 1010.0R
COVE POINT       0448   46      10/ 12/ 20 1008.8R
LEWISETTA        0448   47 48  350/  9/ 13 1008.0R
SOLOMONS ISLAND  0442   46 50  340/  8/ 11   N/A
PINEY POINT      0448          360/ 12/ 14   N/A

$$





USA.gov is the U.S. government's official web portal to all federal, state and local government web resources and services.